Location: Murdochville
(48.9591°N, 65.4950°W)
Time: 21:45:54
(UTC-04:00)

Envisat - Pass Details

Date: 27 April 2026
Orbit: 761 x 762 km, 98.4° (Epoch: 15 May)

Event Time Altitude Azimuth Distance (km) Brightness Sun altitude
Rises 01:22:16 0° 34° (NNE) 3,233 7.4 -25.7°
Reaches altitude 10° 01:26:54 10° 73° (ENE) 2,299 5.9 -25.5°
Maximum altitude 01:27:54 11° 84° (E) 2,260 5.7 -25.4°
Drops below altitude 10° 01:28:55 10° 96° (E) 2,295 5.6 -25.3°
Enters shadow 01:31:04 - 118° (ESE) 2,601 5.7 -25.2°
